Flag for Cameroon Weather past 2 weeks in Bamenda, Cameroon

Now
77 °F

Thunderstorms. Passing clouds.


Feels Like: 78 °F
Forecast: 45 / 89 °F
Wind: No wind

Location: Douala Obs.

Current Time: Jan 29, 2015 at 7:19:19 AM

Latest Report: Jan 29, 2015 at 6:00 AM


Visibility: 5 mi

Pressure: 29.83 "Hg

Humidity: 94%

Dew point: 75 °F

Location of BamendaLocation

Historic Weather in Bamenda — Graph

°F

Bamenda temperature yesterday

Maximum temperature yesterday: 90 °F (at 1:00 PM)
Minimum temperature yesterday: 77 °F (at 7:00 AM)
Average temperature yesterday: 83 °F

Past Weeks' High & Low Weather Summary

 TemperatureHumidityPressure
High93 °F (Jan 20, 2:00 PM)100% (Jan 15, 12:00 AM)29.98 "Hg (Jan 15, 12:00 AM)
Low72 °F (Jan 14, 6:00 AM)33% (Jan 27, 6:00 PM)29.74 "Hg (Jan 24, 4:00 PM)
Average83 °F82%29.85 "Hg
* Reported Jan 14 6:00 AM — Jan 29 6:00 AM, Bamenda, Weather by CustomWeather, © 2014

Note: Actual official high and low records may vary slightly from our data, if they occured in-between our weather recording intervals... More about our weather records

Advertising

Bamenda weather history for previous 24 hours

 ConditionsComfort  
Time TempWeatherWind HumidityBarometerVisibility
6:00 AM
Jan 29
77 °FThunderstorms. Passing clouds.No wind94%29.83 "Hg5 mi
5:00 AM79 °FThunderstorms. Passing clouds.No wind89%29.83 "Hg5 mi
4:00 AM79 °FThunderstorms. Passing clouds.No wind94%29.83 "HgN/A
3:00 AM81 °FThunderstorms. Passing clouds.No wind89%29.83 "HgN/A
2:00 AM82 °FThunderstorms. Passing clouds.5 mph84%29.86 "HgN/A
1:00 AM81 °FPassing clouds.No wind94%29.86 "HgN/A
12:00 AM82 °FPassing clouds.No wind84%29.86 "HgN/A
11:00 PM
Jan 28
82 °FPassing clouds.No wind89%29.86 "HgN/A
10:00 PM82 °FPassing clouds.5 mph89%29.86 "HgN/A
9:00 PM82 °FPassing clouds.5 mph84%29.83 "HgN/A
8:00 PM82 °FPassing clouds.5 mph84%29.83 "HgN/A
7:00 PM84 °FPassing clouds.7 mph79%29.80 "HgN/A
6:00 PM86 °FPartly sunny.7 mph75%29.77 "HgN/A
5:00 PM86 °FPartly sunny.9 mph75%29.77 "HgN/A
4:00 PM86 °FPartly sunny.9 mph75%29.77 "HgN/A
3:00 PM90 °FPartly sunny.9 mph67%29.77 "HgN/A
2:00 PM90 °FScattered clouds.9 mph59%29.80 "HgN/A
1:00 PM90 °FBroken clouds.12 mph67%29.83 "HgN/A
12:00 PM88 °FPartly sunny.7 mph70%29.86 "HgN/A
11:00 AM88 °FFog.No wind70%29.86 "Hg3 mi
10:00 AM84 °FFog.No wind79%29.86 "Hg3 mi
9:00 AM81 °FFog.5 mph89%29.86 "Hg2 mi
8:00 AM79 °FThunderstorms. Fog.5 mph89%29.86 "Hg2 mi
7:00 AM77 °FThunderstorms. Fog.No wind94%29.83 "Hg2 mi
Weather by CustomWeather, © 2014

See weather overviewHow to use our weather pages